User: anonymous   Login
Location: Ramillies
(50.6368°N, 4.9145°E)
Time: 03:36:38
(UTC+02:00)
Language:

ISS - Orbit

View from above orbital plane
View from above orbital plane
View from above satellite
View from above satellite

Ground track
Ground track

The orbit data is extracted from the following two-line orbital elements,

1 25544U 98067A   18234.50354018  .00016717  00000-0  10270-3 0  9023
2 25544  51.6370  48.2168 0005675  84.8885 275.2915 15.53854174  8829
Epoch (UTC): 22 August 2018 12:05:05
Eccentricity: 0.0005675
inclination: 51.6370°
perigee height: 401 km
apogee height: 409 km
right ascension of ascending node: 48.2168°
argument of perigee: 84.8885°
revolutions per day: 15.53854174
mean anomaly at epoch: 275.2915°
orbit number at epoch: 882

The dashed part of the orbit path shows where the satellite is in the earth's shadow,  

DLR